Portada
METAR-TAF:

METAR-TAF

Aeroports :

Tòquio Heliport, Japó

latitud: 35-38N, longitud: 139-51E, altitud: 5 m

Observació

L'informe es va fer fa 9 hores i 16 minuts, a les 07:00 UTC
Vent 6 kt del Nord/Nord-Est, variant entre Nord i Est/Nord-Est
Temperatura 25°C
Humitat 94%
Pressió 1000 hPa
Visibilitat 10 km o més
Escasses núvols a una alçada de 800 ft
Cel ennuvolat a una alçada de 1300 ft

METAR: RJTI 160700Z 03006KT 350V070 9999 FEW008 BKN013 25/24 Q1000

Hora: 01:16 (16:16 UTC)


TAF: manca

Observacions i pronòstics meteorològics de més de 4000 aeroports (METAR i TAF).

Les estacions disponibles són els punts grocs i vermells al mapa.

Posi el ratolí al punt desitjat per veure el nom de l'estació.

Feu clic per veure les observacions i els pronòstics meteorològics.

Per canviar el mapa: feu clic els botons verds amb una creu de color negre per apropar; al botó verd amb un guió per allunyar la imatge; o en les fletxes verdes per a mapes adjacents.


METAR-TAF: